User: anonymous   Login
Location: ??
(35.5052°N, 139.7262°E)
Time: 16:58:34
(UTC+00:00)
Language:

Cosmos 1867 - Orbit

View from above orbital plane
View from above orbital plane
View from above satellite
View from above satellite

Ground track
Ground track

The orbit data is extracted from the following two-line orbital elements,

1 18187U 87060A   21258.93854467 -.00000098  00000-0  97102-6 0  9993
2 18187  65.0104 205.9478 0020918 272.3892  87.4797 14.31125971785827
Epoch (UTC): 15 September 2021 22:31:30
Eccentricity: 0.0020918
inclination: 65.0104°
perigee height: 773 km
apogee height: 803 km
right ascension of ascending node: 205.9478°
argument of perigee: 272.3892°
revolutions per day: 14.31125971
mean anomaly at epoch: 87.4797°
orbit number at epoch: 78582

The dashed part of the orbit path shows where the satellite is in the earth's shadow,  

DLR